Location: Banksville Park
(38.5557°N, 75.1182°W)
Time: 12:11:10
(UTC+00:00)

In-Cosmos 22 - Pass Details

Date: 19 September 2020
Orbit: 785 x 877 km, 81.2° (Epoch: 24 October)

Event Time Altitude Azimuth Distance (km) Brightness Sun altitude
Rises 00:15:35 0° 357° (N) 3,284 7.5 -14.9°
Reaches altitude 10° 00:18:03 10° 4° (N) 2,354 6.7 -15.3°
Maximum altitude 00:23:08 46° 77° (ENE) 1,059 4.3 -16.3°
Enters shadow 00:26:19 22° 140° (SE) 1,699 5.3 -16.9°
